Regional Weather Roundup
Issued by NWS

Home | Current Version | Previous Version | Text Only | Print | Product List | Glossary On
Versions: 1 2 3 4 5 6 7 8 9 10 11 12 13 14 15 16 17 18 19 20 21 22 23 24 25 26 27 28 29 30 31 32 33 34 35 36 37 38 39 40 41 42 43 44 45 46 47 48 49 50
000
ASUS44 KJAN 240910
RWRMS

MISSISSIPPI HOURLY WEATHER ROUNDUP
NATIONAL WEATHER SERVICE JACKSON MS
400 AM CDT SUN MAY 24 2015

NOTE: "FAIR: INDICATES FEW OR NO CLOUDS BELOW 12,000 FEET WITH NO
SIGNIFICANT WEATHER AND/OR OBSTRUCTIONS TO VISIBILITY.

MSZ001>002-007>008-010>013-018>021-025>028-034>036-241000-
NORTHWEST MISSISSIPPI

CITY           SKY/WX    TMP DP  RH WIND       PRES   REMARKS
CLARKSDALE     FAIR      72  64  78 CALM      30.10S
CLEVELAND      FAIR      71  68  89 SE8       30.08S
GREENWOOD      CLEAR     71  62  73 SE7       30.10F
GREENVILLE     CLEAR     72  67  84 SE9       30.08S
OLIVE BRANCH   PTCLDY    68  63  83 SE9       30.12S
OXFORD         FAIR      66  57  72 SE7       30.15S
TUNICA         MOSUNNY   70  61  73 SE12      30.10S
$$

MSZ003>006-009-014>017-022>024-029>033-037>039-241000-
NORTHEAST MISSISSIPPI

CITY           SKY/WX    TMP DP  RH WIND       PRES   REMARKS
COLUMBUS AFB   MOCLDY    66  58  77 SE5       30.16S
CORINTH        FAIR      63  59  88 E3        30.16S
GOLDN TRIANGLE PTCLDY    68  55  64 SE6       30.16S
STARKVILLE     FAIR      68  59  73 SE6       30.16S
TUPELO         MOCLDY    69  58  67 SE6       30.16S
$$

MSZ040-058-241000-
CENTRAL MISSISSIPPI

CITY           SKY/WX    TMP DP  RH WIND       PRES   REMARKS
JACKSON INTL   CLEAR     69  65  86 SE5       30.12S
JACKSON HAWKNS CLEAR     70  66  87 SE9       30.12S
MERIDIAN KEY   PTCLDY    65  62  90 CALM      30.15S
MERIDIAN NAS   CLEAR     67  61  81 SE6       30.16S
RAYMOND        FAIR      66  61  82 E3        30.11R HAZE
VICKSBURG      CLEAR     71  67  87 SE6       30.08F
$$

MSZ059>079-241000-
SOUTH MISSISSIPPI

CITY           SKY/WX    TMP DP  RH WIND       PRES   REMARKS
BROOKHAVEN     FAIR      68  68 100 CALM      30.13R FOG
HATTIESBURG    CLEAR     68  66  93 CALM      30.13F
MCCOMB         PTCLDY    70  70 100 SE7       30.10S FOG
NATCHEZ        CLEAR     72  66  83 SE5       30.09R
PINE BELT      CLEAR     66  64  94 E3        30.14S
$$

MSZ080>082-241000-
COASTAL MISSISSIPPI

CITY           SKY/WX    TMP DP  RH WIND       PRES   REMARKS
BILOXI         MOCLDY    79  74  83 S13       30.11S
PASCAGOULA     PTCLDY    76  72  87 SE6       30.12S
GULFPORT       MOCLDY    80  72  76 SE14      30.10S
$$


USA.gov is the U.S. government's official web portal to all federal, state and local government web resources and services.